This demonstration page uses our WeatherBlox Daily Observations layout. Learn more.

Left ArrowRight Arrow

34.16533, -84.80231

Hourly Observations for March 14, 2021

Temp ( °F °C ) Dew Point ( °F °C ) Humidity (%) Winds ( mph kmh ) Pressure ( in mb ) Visibility ( mi km ) Precip ( " mm )
12:53 am 00:53 Cloudy 61 16.1 53 11.7 75 75 Calm 30.16 1022 10 16 0.00 0.00
1:53 am 01:53 Cloudy 60 15.6 53 11.7 78 78 Calm 30.16 1022 10 16 0.00 0.00
3:53 am 03:53 Cloudy 60 15.6 52 11.1 75 75 Calm 30.14 1021 10 16 0.00 0.00
4:53 am 04:53 Cloudy 59 15 53 11.7 81 81 Calm 30.13 1020 10 16 0.00 0.00
5:53 am 05:53 Cloudy 58 14.4 52 11.1 81 81 Calm 30.13 1020 10 16 0.00 0.00
6:53 am 06:53 Clear 54 12.2 50 10 87 87 Calm 30.14 1021 9 14 0.00 0.00
7:53 am 07:53 Sunny 52 11.1 49 9.4 89 89 Calm 30.16 1021 8 13 0.00 0.00
8:53 am 08:53 Sunny 56 13.3 51 10.6 84 84 Calm 30.17 1022 7 11 0.00 0.00
9:04 am 09:04 Partly Cloudy 57 13.9 50 10 78 78 Calm 30.19 1022 10 16 0.00 0.00
9:20 am 09:20 Mostly Cloudy 57 13.9 49 9.4 74 74 Calm 30.20 1023 10 16 0.00 0.00
9:32 am 09:32 Partly Cloudy 58 14.4 49 9.4 72 72 Calm 30.20 1023 10 16 0.00 0.00
9:53 am 09:53 Sunny 60 15.6 49 9.4 67 67 Calm 30.17 1022 10 16 0.00 0.00
10:53 am 10:53 Sunny 66 18.9 49 9.4 54 54 NNE 7 11 30.17 1022 10 16 0.00 0.00
11:53 am 11:53 Sunny 69 20.6 48 8.9 47 47 NNE 5 7 30.17 1022 10 16 0.00 0.00
12:53 pm 12:53 Sunny 71 21.7 49 9.4 46 46 N 3 6 30.15 1021 10 16 0.00 0.00
1:53 pm 13:53 Sunny 75 23.9 52 11.1 45 45 VRB 3 6 30.13 1020 10 16 0.00 0.00
2:53 pm 14:53 Sunny 77 25 54 12.2 45 45 WNW 5 7 30.10 1019 10 16 0.00 0.00
3:53 pm 15:53 Sunny 78 25.6 53 11.7 42 42 VRB 3 6 30.06 1018 10 16 0.00 0.00
4:53 pm 16:53 Sunny 79 26.1 53 11.7 41 41 NNE 5 7 30.05 1018 10 16 0.00 0.00
5:53 pm 17:53 Sunny 80 26.7 54 12.2 41 41 NNE 7 11 30.03 1017 10 16 0.00 0.00
6:53 pm 18:53 Sunny 77 25 53 11.7 43 43 NNE 7 11 30.03 1017 10 16 0.00 0.00
7:53 pm 19:53 Clear 73 22.8 53 11.7 50 50 N 6 9 30.05 1018 10 16 0.00 0.00
8:53 pm 20:53 Mostly Clear 68 20 54 12.2 61 61 Calm 30.06 1018 10 16 0.00 0.00
9:53 pm 21:53 Clear 67 19.4 55 12.8 66 66 NE 3 6 30.05 1018 10 16 0.00 0.00
10:53 pm 22:53 Clear 62 16.7 55 12.8 78 78 Calm 30.05 1018 10 16 0.00 0.00
11:53 pm 23:53 Clear 60 15.6 55 12.8 84 84 Calm 30.05 1018 8 13 0.00 0.00

Powered by AerisWeather